Weather History for PHOG - March, 2014

Change the Weather History Date:

Monday, March 31, 2014

  Actual Average Record
Temperature  
Mean Temperature 77 °F 74 °F  
Max Temperature 81 °F 82 °F 89 °F (1953)
Min Temperature 72 °F 65 °F 56 °F (1972)
Degree Days  
Heating Degree Days 0 0  
Month to date heating degree days 0 0  
Since 1 July heating degree days 0 0  
Cooling Degree Days 12 9  
Month to date cooling degree days 293 245  
Year to date cooling degree days 804 654  
Growing Degree Days 26 (Base 50)    
Moisture  
Dew Point 69 °F    
Average Humidity 84    
Maximum Humidity 93    
Minimum Humidity 74    
Precipitation  
Precipitation T in 0.08 in 1.18 in (1996)
Month to date precipitation 3.75 2.45  
Year to date precipitation 10.40 7.21  
Snow  
Snow 0.00 in - - ()
Month to date snowfall 0.0  
Since 1 July snowfall 0.0  
Snow Depth 0.00 in    
Sea Level Pressure  
Sea Level Pressure 30.01 in    
Wind  
Wind Speed 13 mph (ENE)    
Max Wind Speed 21 mph    
Max Gust Speed 29 mph    
Visibility 10 miles    
Events Rain    
T = Trace of Precipitation, MM = Missing Value Source: NWS Daily Summary

Daily Weather History Graph

Daily Weather History Graph

Search for Another Location

Airport or City:

Trip Planner

Search our weather history database for the weather conditions in past years. The results will help you decide how hot, cold, wet, or windy it might be!

Date:

Astronomy

Mar. 31, 2014 Rise Set
Actual Time 6:19 AM HST 6:40 PM HST
Civil Twilight 5:57 AM HST 7:02 PM HST
Nautical Twilight 5:31 AM HST 7:28 PM HST
Astronomical Twilight 5:05 AM HST 7:54 PM HST
Moon 6:59 AM HST (3/31) 7:57 PM HST (3/31)
Length of Visible Light 13h 04m
Length of Day
12h 20m
New Moon, 2% of the Moon is Illuminated
Mar 31
New Moon
Apr 6
First Quarter
Apr 14
Full
Apr 21
Last Quarter
Apr 28
New

Hourly Weather History & Observations

Time (HST) Temp. Heat Index Dew Point Humidity Pressure Visibility Wind Dir Wind Speed Gust Speed Precip Events Conditions
12:54 AM - - - N/A% 30.02 in 10.0 mi NE 16.1 mph 20.7 mph N/A   Clear
1:54 AM - - - N/A% 30.01 in 10.0 mi Calm Calm - N/A   Partly Cloudy
2:54 AM - - - N/A% 29.98 in 10.0 mi ENE 4.6 mph - N/A   Clear
3:54 AM - - - N/A% 29.97 in 10.0 mi NE 6.9 mph - N/A   Clear
4:54 AM - - - N/A% 29.97 in 10.0 mi NE 16.1 mph 21.9 mph N/A   Clear
5:54 AM 72.0 °F - 68.0 °F 87% 30.00 in 10.0 mi NE 15.0 mph - 0.00 in Rain Light Rain
6:54 AM 71.6 °F - 69.8 °F 94% 30.01 in 10.0 mi NE 17.3 mph 23.0 mph 0.00 in Rain Light Rain
7:54 AM 71.6 °F - 68.0 °F 88% 30.02 in 10.0 mi ENE 13.8 mph - 0.04 in   Scattered Clouds
8:54 AM 75.2 °F - 69.8 °F 83% 30.05 in 10.0 mi ENE 9.2 mph - 0.00 in   Scattered Clouds
9:54 AM 77.0 °F - 70.0 °F 79% 30.04 in 10.0 mi ENE 15.0 mph 25.3 mph N/A   Mostly Cloudy
10:54 AM 78.1 °F - 70.0 °F 76% 30.04 in 10.0 mi ENE 20.7 mph 28.8 mph N/A   Mostly Cloudy
11:54 AM 78.1 °F - 70.0 °F 76% 30.04 in 10.0 mi ENE 18.4 mph 26.5 mph 0.00 in   Mostly Cloudy
12:54 PM 80.1 °F 83.8 °F 72.0 °F 76% 30.02 in 10.0 mi NE 16.1 mph 23.0 mph 0.00 in Rain Light Rain
1:54 PM 77.0 °F - 72.0 °F 84% 30.00 in 10.0 mi ENE 13.8 mph 24.2 mph 0.00 in Rain Light Rain
2:54 PM 79.0 °F - 70.0 °F 74% 29.99 in 10.0 mi East 18.4 mph 25.3 mph 0.00 in   Scattered Clouds
3:54 PM 78.1 °F - 70.0 °F 76% 29.97 in 10.0 mi NE 18.4 mph 26.5 mph N/A   Mostly Cloudy
4:54 PM 77.0 °F - 71.1 °F 82% 29.98 in 10.0 mi ENE 17.3 mph 24.2 mph 0.00 in Rain Light Rain
5:54 PM 73.4 °F - 69.8 °F 88% 29.99 in 10.0 mi ENE 17.3 mph - 0.00 in Rain Light Rain
6:54 PM 73.4 °F - 68.0 °F 83% 30.00 in 10.0 mi ENE 13.8 mph 23.0 mph 0.00 in   Mostly Cloudy
7:54 PM 73.4 °F - 68.0 °F 83% 30.03 in 10.0 mi NE 18.4 mph 24.2 mph N/A   Partly Cloudy
8:54 PM 73.4 °F - 68.0 °F 83% 30.05 in 10.0 mi ENE 11.5 mph - N/A   Scattered Clouds
9:54 PM 75.2 °F - 68.0 °F 78% 30.06 in 10.0 mi ENE 13.8 mph 20.7 mph N/A   Partly Cloudy
10:54 PM 75.2 °F - 68.0 °F 78% 30.06 in 10.0 mi NE 11.5 mph 18.4 mph N/A   Mostly Cloudy
11:54 PM - - - N/A% 30.06 in 10.0 mi ENE 10.4 mph 20.7 mph N/A   Mostly Cloudy